Toledo, OH

7:52 AM EDT on June 25, 2017 (GMT -0400)
Toledo Express

Weather History for KTOL - March, 2013

Change the Weather History Date:

Monday, March 18, 2013

  Actual Average Record
Temperature  
Mean Temperature 32 °F 38 °F  
Max Temperature 37 °F 48 °F 76 °F (1903)
Min Temperature 27 °F 29 °F 8 °F (1967)
Degree Days  
Heating Degree Days 33 27  
Month to date heating degree days 578 538  
Since 1 July heating degree days 5034 5114  
Cooling Degree Days 0 0  
Month to date cooling degree days 0 0  
Year to date cooling degree days 0 0  
Moisture  
Dew Point 29 °F    
Average Humidity 82    
Maximum Humidity 100    
Minimum Humidity 63    
Precipitation  
Precipitation 0.10 in 0.08 in 0.72 in (1986)
Month to date precipitation 0.54 1.36  
Year to date precipitation 6.98 5.48  
Snow  
Snow T in 0.20 in - ()
Month to date snowfall 0.1 4.0  
Since 1 July snowfall 20.8 34.5  
Snow Depth 0.00 in    
Sea Level Pressure  
Sea Level Pressure 29.75 in    
Wind  
Wind Speed 14 mph (East)    
Max Wind Speed 24 mph    
Max Gust Speed 32 mph    
Visibility 5 miles    
Events Rain , Snow    
T = Trace of Precipitation, MM = Missing Value Source: NWS Daily Summary

Daily Weather History Graph

Daily Weather History Graph

Search for Another Location

Airport or City:

Trip Planner

Search our weather history database for the weather conditions in past years. The results will help you decide how hot, cold, wet, or windy it might be!

Date:

Astronomy

Mar. 18, 2013 Rise Set
Actual Time 7:41 AM EDT 7:45 PM EDT
Civil Twilight 7:13 AM EDT 8:13 PM EDT
Nautical Twilight 6:41 AM EDT 8:45 PM EDT
Astronomical Twilight 6:08 AM EDT 9:18 PM EDT
Moon 11:35 AM EDT (3/18) 1:48 AM EDT (3/18)
Length of Visible Light 12h 59m
Length of Day
12h 03m
Waxing Crescent, 40% of the Moon is Illuminated
Mar 18
Waxing Crescent
Mar 19
First Quarter
Mar 27
Full
Apr 3
Last Quarter
Apr 10
New

Hourly Weather History & Observations

Time (EDT) Temp. Windchill Dew Point Humidity Pressure Visibility Wind Dir Wind Speed Gust Speed Precip Events Conditions
12:52 AM 27.0 °F 16.7 °F 19.0 °F 72% 30.14 in 10.0 mi East 11.5 mph - N/A   Clear
1:52 AM 27.0 °F 16.7 °F 19.9 °F 75% 30.12 in 10.0 mi East 11.5 mph - N/A   Clear
2:52 AM 28.0 °F 17.5 °F 21.0 °F 75% 30.09 in 10.0 mi East 12.7 mph - N/A   Clear
3:52 AM 28.9 °F 17.3 °F 19.9 °F 69% 30.04 in 10.0 mi East 16.1 mph - N/A   Clear
4:52 AM 30.0 °F 18.7 °F 19.9 °F 66% 29.99 in 10.0 mi East 16.1 mph 23.0 mph N/A   Clear
5:52 AM 30.0 °F 20.0 °F 21.0 °F 69% 29.96 in 10.0 mi East 12.7 mph - N/A   Mostly Cloudy
6:27 AM 30.2 °F 20.2 °F 21.2 °F 69% 29.90 in 6.0 mi East 12.7 mph - 0.00 in Snow Light Snow
6:52 AM 30.0 °F 18.7 °F 21.9 °F 72% 29.92 in 9.0 mi ENE 16.1 mph 21.9 mph 0.00 in Snow Light Snow
7:33 AM 30.2 °F 19.8 °F 24.8 °F 80% 29.88 in 8.0 mi East 13.8 mph 21.9 mph 0.02 in Rain Light Freezing Rain
7:47 AM 30.2 °F 19.3 °F 24.8 °F 80% 29.87 in 9.0 mi East 15.0 mph - 0.02 in Snow Snow
7:52 AM 30.0 °F 20.0 °F 24.1 °F 79% 29.90 in 7.0 mi ENE 12.7 mph - 0.02 in   Light Ice Pellets
8:52 AM 30.0 °F 18.7 °F 26.1 °F 85% 29.87 in 5.0 mi ENE 16.1 mph 21.9 mph 0.03 in   Light Ice Pellets
9:21 AM 30.2 °F 19.8 °F 26.6 °F 86% 29.81 in 6.0 mi East 13.8 mph 23.0 mph 0.00 in   Light Ice Pellets
9:52 AM 30.0 °F 19.1 °F 27.0 °F 88% 29.82 in 7.0 mi ENE 15.0 mph - 0.00 in   Light Ice Pellets
10:13 AM 30.2 °F 19.8 °F 26.6 °F 86% 29.79 in 9.0 mi East 13.8 mph 24.2 mph N/A   Overcast
10:28 AM 30.2 °F 19.8 °F 28.4 °F 93% 29.78 in 2.5 mi East 13.8 mph 21.9 mph 0.00 in Rain Light Freezing Rain
10:39 AM 30.2 °F 18.9 °F 28.4 °F 93% 29.77 in 1.8 mi East 16.1 mph 23.0 mph 0.01 in Rain Light Freezing Rain
10:52 AM 30.9 °F 19.8 °F 28.9 °F 92% 29.79 in 1.5 mi East 16.1 mph 21.9 mph 0.01 in Rain Light Freezing Rain
11:07 AM 30.2 °F 19.3 °F 28.4 °F 93% 29.75 in 1.2 mi East 15.0 mph 21.9 mph 0.00 in Rain Light Freezing Rain
11:28 AM 30.2 °F 21.3 °F 28.4 °F 93% 29.74 in 1.8 mi East 10.4 mph - 0.01 in   Overcast
11:42 AM 32.0 °F 23.0 °F 28.4 °F 87% 29.74 in 1.8 mi East 11.5 mph 20.7 mph 0.01 in Rain Light Freezing Rain
11:52 AM 32.0 °F 22.1 °F 30.0 °F 92% 29.75 in 1.8 mi East 13.8 mph - 0.01 in Rain Light Freezing Rain
11:59 AM 32.0 °F 23.0 °F 30.2 °F 93% 29.73 in 2.5 mi East 11.5 mph - 0.00 in Rain Light Freezing Rain
12:08 PM 32.0 °F 22.5 °F 30.2 °F 93% 29.73 in 2.5 mi East 12.7 mph 20.7 mph 0.00 in   Overcast
12:31 PM 32.0 °F 22.5 °F 30.2 °F 93% 29.72 in 4.0 mi East 12.7 mph - 0.00 in   Overcast
12:52 PM 32.0 °F 22.5 °F 30.9 °F 96% 29.73 in 4.0 mi East 12.7 mph - 0.00 in   Overcast
1:52 PM 33.1 °F 23.9 °F 32.0 °F 96% 29.69 in 4.0 mi East 12.7 mph - N/A   Overcast
2:24 PM 33.8 °F 25.8 °F 32.0 °F 93% 29.64 in 1.8 mi East 10.4 mph - 0.00 in Rain Light Rain
2:37 PM 33.8 °F 27.0 °F 33.8 °F 100% 29.63 in 1.2 mi East 8.1 mph - 0.00 in   Overcast
2:52 PM 35.1 °F 27.9 °F 33.1 °F 92% 29.64 in 1.8 mi East 9.2 mph - 0.01 in   Overcast
3:25 PM 35.6 °F 29.2 °F 33.8 °F 93% 29.58 in 1.0 mi East 8.1 mph - 0.00 in   Overcast
3:52 PM 36.0 °F 29.6 °F 34.0 °F 93% 29.59 in 1.5 mi East 8.1 mph - 0.01 in   Overcast
4:44 PM 35.6 °F 32.8 °F 33.8 °F 93% 29.57 in 2.5 mi ENE 3.5 mph - N/A   Overcast
4:52 PM 36.0 °F 31.1 °F 34.0 °F 93% 29.57 in 2.5 mi ENE 5.8 mph - N/A   Overcast
5:21 PM 35.6 °F - 35.6 °F 100% 29.56 in 1.2 mi Calm Calm - N/A   Overcast
5:40 PM 35.6 °F - 35.6 °F 100% 29.55 in 1.5 mi Calm Calm - 0.00 in   Overcast
5:52 PM 36.0 °F 33.3 °F 35.1 °F 97% 29.58 in 1.5 mi South 3.5 mph - 0.00 in   Overcast
6:01 PM 35.6 °F 32.8 °F 35.6 °F 100% 29.57 in 1.2 mi South 3.5 mph - N/A   Overcast
6:21 PM 37.4 °F 32.1 °F 35.6 °F 93% 29.55 in 1.5 mi South 6.9 mph - 0.00 in   Overcast
6:36 PM 37.4 °F 30.3 °F 35.6 °F 93% 29.56 in 2.5 mi SW 10.4 mph - 0.00 in   Overcast
6:43 PM 37.4 °F 28.5 °F 35.6 °F 93% 29.57 in 3.0 mi SW 15.0 mph 21.9 mph 0.00 in   Overcast
6:52 PM 37.0 °F 28.5 °F 35.1 °F 93% 29.59 in 2.5 mi SW 13.8 mph - 0.00 in   Overcast
7:11 PM 37.4 °F 28.2 °F 35.6 °F 93% 29.59 in 4.0 mi WSW 16.1 mph 24.2 mph 0.01 in   Overcast
7:52 PM 36.0 °F 25.3 °F 34.0 °F 93% 29.62 in 7.0 mi WSW 19.6 mph - 0.01 in   Overcast
8:52 PM 36.0 °F 25.6 °F 33.1 °F 89% 29.65 in 6.0 mi WSW 18.4 mph - N/A   Overcast
9:52 PM 35.1 °F 24.1 °F 33.1 °F 92% 29.68 in 6.0 mi WSW 19.6 mph 31.1 mph N/A   Overcast
10:47 PM 35.6 °F 25.5 °F 30.2 °F 81% 29.67 in 10.0 mi West 17.3 mph 27.6 mph 0.00 in   Overcast
10:52 PM 34.0 °F 21.8 °F 30.9 °F 89% 29.69 in 10.0 mi WSW 23.0 mph 28.8 mph 0.00 in   Overcast
11:52 PM 34.0 °F 22.7 °F 30.9 °F 89% 29.70 in 10.0 mi WSW 19.6 mph - N/A   Overcast